Regional Weather Roundup
Issued by NWS

Home | Current Version | Previous Version | Graphics & Text | Print | Product List | Glossary On
Versions: 1 2 3 4 5 6 7 8 9 10 11 12 13 14 15 16 17 18 19 20 21 22 23 24 25 26 27 28 29 30 31 32 33 34 35 36 37 38 39 40 41 42 43 44 45 46 47 48 49 50
000
ASUS43 KFSD 011002
RWRSD

WEATHER ROUNDUP FOR SOUTH DAKOTA
NATIONAL WEATHER SERVICE SIOUX FALLS SD
400 AM CST SUN FEB 01 2015

NOTE: "FAIR" INDICATES FEW OR NO CLOUDS BELOW 12,000 FEET WITH NO
SIGNIFICANT WEATHER AND/OR OBSTRUCTIONS TO VISIBILITY.


SDZ001>005-009-010-012>017-011100-
NORTHWEST AND NORTH CENTRAL SOUTH DAKOTA

CITY           SKY/WX    TMP DP  RH WIND       PRES   REMARKS
BUFFALO          N/A      0  -5  79 N8        30.24R WCI -14
FAITH            N/A     -1  -7  75 N17       30.31R WCI -22
MOBRIDGE       FLURRIES  -1  -8  72 N20       30.35R WCI -23
$$

SDZ012>016-024>037-041>051-057-063-072>074-011100-
SOUTHWEST AND SOUTH CENTRAL SOUTH DAKOTA

CITY           SKY/WX    TMP DP  RH WIND       PRES   REMARKS
RAPID CTY ARPT CLOUDY     5   2  87 N16       30.24R WCI -14
PIERRE         LGT SNOW   4  -1  80 N21       30.29R WCI -17
CUSTER         CLOUDY    14   8  77 CALM      29.98S
ELLSWORTH AFB  FLURRIES   6   2  85 N13       30.24  WCI -11
PHILIP         LGT SNOW   6   1  80 N18       30.30R WCI -13
PINE RIDGE     FLURRIES  10   4  76 N7        30.18R WCI  -1
WINNER         LGT SNOW   5   1  83 N21G30    30.22R FOG     WCI -16
$$

SDZ004>011-016>023-039-040-011100-
NORTHEAST SOUTH DAKOTA

CITY           SKY/WX    TMP DP  RH WIND       PRES   REMARKS
ABERDEEN       LGT SNOW   0  -8  69 N20G30    30.35S WCI -22
WATERTOWN      LGT SNOW   2  -4  76 N23G30    30.18S WCI -21
SISSETON         N/A      0  -6  76 N23G29    30.34S WCI -23
$$

SDZ017-020-022-023-036>040-048>070-011100-
SOUTHEAST SOUTH DAKOTA

CITY           SKY/WX    TMP DP  RH WIND       PRES   REMARKS
SIOUX FALLS    LGT SNOW  17  13  84 NE28G36   30.05R FOG     WCI  -2
HURON          LGT SNOW   2  -3  80 N21       30.25R WCI -20
MITCHELL       LGT SNOW   8   4  83 N23G32    30.19R VSB 1   WCI -13
YANKTON        CLOUDY    19  14  79 N21G33    30.07R WCI   3
$$

ABBREVIATIONS USED IN REMARKS
   TC - TEMPERATURE IN CELSIUS
  WCI - WIND CHILL INDEX
   HX - HEAT INDEX
  VSB - VISIBILITY



USA.gov is the U.S. government's official web portal to all federal, state and local government web resources and services.